Flag for Germany Weather past 2 weeks in Flensburg, Schleswig-Holstein, Germany

Now
37 °F

Clear.


Feels Like: 32 °F
Forecast: 34 / 44 °F
Wind: 7 mph from West

Location: Soenderborg Lufthavn

Current Time: Feb 28, 2015 at 12:52:52 AM

Latest Report: Feb 27, 2015 at 9:50 PM


Visibility: 10 mi

Pressure: 30.01 "Hg

Humidity: 87%

Dew point: 34 °F

Location of FlensburgLocation

Historic Weather in Flensburg — Graph

°F

Flensburg temperature yesterday

Maximum temperature yesterday: 43 °F (at 1:52 PM)
Minimum temperature yesterday: 37 °F (at 9:50 PM)
Average temperature yesterday: 40 °F

Past Weeks' High & Low Weather Summary

 TemperatureHumidityPressure
High45 °F (Feb 18, 11:50 AM)100% (Feb 14, 6:50 AM)30.57 "Hg (Feb 14, 6:50 AM)
Low28 °F (Feb 17, 6:50 AM)71% (Feb 18, 11:50 AM)29.18 "Hg (Feb 23, 8:21 AM)
Average38 °F89%29.91 "Hg
* Reported Feb 13 6:20 AM — Feb 27 9:50 PM, Flensburg, Weather by CustomWeather, © 2015

Note: Actual official high and low records may vary slightly from our data, if they occured in-between our weather recording intervals... More about our weather records

Advertising

Flensburg weather history for previous 24 hours

 ConditionsComfort  
Time TempWeatherWind HumidityBarometerVisibility
9:50 PM
Fri, Feb 27
37 °FClear.7 mph87%30.01 "Hg10 mi
8:50 PM39 °FPassing clouds.8 mph81%29.98 "HgN/A
7:50 PM39 °FPassing clouds.6 mph87%29.98 "HgN/A
6:50 PM39 °FPassing clouds.2 mph93%29.95 "Hg5 mi
5:50 PM41 °FScattered clouds.1 mph87%29.92 "HgN/A
4:50 PM41 °FPartly sunny.2 mph93%29.92 "HgN/A
3:50 PM43 °FPartly sunny.8 mph87%29.89 "HgN/A
2:50 PM43 °FSprinkles. Broken clouds.8 mph87%29.89 "HgN/A
1:52 PM43 °FBroken clouds.7 mph87%29.86 "Hg5 mi
12:51 PM41 °FBroken clouds.9 mph93%29.86 "Hg4 mi
12:25 PM41 °FLight rain. Partly sunny.9 mph93%29.86 "Hg4 mi
11:50 AM41 °FLight rain. Broken clouds.12 mph93%29.83 "Hg3 mi
11:20 AM41 °FLight rain. Broken clouds.10 mph93%29.83 "Hg2 mi
10:50 AM41 °FLight rain. Partly sunny.7 mph93%29.83 "Hg2 mi
10:21 AM41 °FLight rain. Partly sunny.5 mph93%29.83 "Hg1 mi
9:50 AM41 °FLight rain. Partly sunny.1 mph93%29.80 "Hg1 mi
9:21 AM39 °FLight rain. Partly sunny.6 mph100%29.80 "Hg2 mi
8:51 AM39 °FLight rain. Partly sunny.6 mph100%29.80 "Hg2 mi
8:23 AM39 °FLight rain. Broken clouds.6 mph100%29.77 "Hg2 mi
7:50 AM39 °FRain. Partly sunny.7 mph93%29.77 "Hg2 mi
7:21 AM39 °FRain. Partly sunny.3 mph93%29.77 "Hg2 mi
6:50 AM39 °FRain. Passing clouds.7 mph100%29.77 "Hg2 mi
6:23 AM39 °FRain. Passing clouds.7 mph100%29.77 "Hg2 mi
Weather by CustomWeather, © 2015

See weather overviewHow to use our weather pages